Terminal Aerodrome Forecast
Issued by NWS Omaha/Valley, NE

Home | Current Version | Previous Version | Text Only | Print | Product List | Glossary Off
Versions: 1 2 3 4 5 6 7 8 9 10 11 12 13 14 15 16 17 18 19 20 21 22 23 24 25 26 27 28 29 30 31 32 33 34 35 36

000
FTUS43 KOAX 181727
TAFOFK
TAF
KOFK 181727Z 1818/1918 VRB05KT P6SM SCT015
      TEMPO 1818/1820 BKN015
     FM182000 18007KT P6SM SKC
     FM191600 21012KT P6SM SCT150=

USA.gov is the U.S. government's official web portal to all federal, state and local government web resources and services.